Preview of NWS' New Version of Forecast
This preview is not operational and should not be used for support decisions.

Regional Weather Roundup (RWR)

Issued by National Weather Service (NWS)

                            
000
ASUS45 KBOI 190310
RWRID 

IDAHO REGIONAL WEATHER ROUNDUP
NATIONAL WEATHER SERVICE BOISE ID
900 PM MDT TUE JUN 18 2019

NOTE: "FAIR" INDICATES FEW OR NO CLOUDS BELOW 12000 FEET
WITH NO SIGNIFICANT WEATHER AND/OR OBSTRUCTIONS TO VISIBILITY

IDZ012-014-190400-
SOUTHWEST IDAHO

  
CITY           SKY/WX    TMP DP  RH WIND       PRES   REMARKS
BOISE          CLEAR     82  39  21 NW14      29.94R                  
CALDWELL       CLEAR     79  50  36 NW9       29.93R                  
MOUNTAIN HOME  CLEAR     82  40  21 N13       29.94R                  
$$

IDZ016-017-190400-
SOUTHCENTRAL IDAHO

  
CITY           SKY/WX    TMP DP  RH WIND       PRES   REMARKS
BURLEY         CLEAR     72  40  31 W13G18    29.97R                  
JEROME         CLEAR     73  39  29 W13       29.98S                  
TWIN FALLS     CLEAR     72  42  34 W9        30.00R                  
$$

IDZ019>023-190400-
SOUTHEAST IDAHO

  
CITY           SKY/WX    TMP DP  RH WIND       PRES   REMARKS
IDAHO FALLS    MOCLDY    71  44  37 CALM      29.99R THUNDER          
POCATELLO      PTCLDY    71  39  31 SW14      29.98S                  
REXBURG        MOCLDY    64  51  62 S8        29.99F                  
$$

IDZ006-010-011-018-031-032-190400-
CENTRAL IDAHO MOUNTAINS

  
CITY           SKY/WX    TMP DP  RH WIND       PRES   REMARKS
MCCALL         CLEAR     70  44  39 NW8       30.05S                  
HAILEY         CLEAR     70  43  37 SW7       30.01R                  
STANLEY          N/A     66  36  32 W7        30.13R                  
SALMON         CLEAR     72  47  40 N6        29.94R                  
CHALLIS        CLEAR     71  44  37 N8        29.98R                  
$$

IDZ002-004-006-007-026-190400-
NORTHERN IDAHO

  
CITY           SKY/WX    TMP DP  RH WIND       PRES   REMARKS
LEWISTON       CLEAR     80  44  27 NW10      29.93F                  
LOWELL           N/A     69  56  62 N3        29.94S                  
COEUR D'ALENE  CLEAR     74  46  36 S10       29.92F                  
MULLAN PASS    PTCLDY    54  42  64 SW8         N/A                   
$$